• In Netherlands
  • List of Countries
  • For 7 days
  • Water Temperature
  • Satellite Maps
  • Weather Map
  • Weather Widgets
  • user-avatar
    Login

    Hourly Weather Barra

    Today, 20 September, Wednesday

    Time Temperature Precipitation Wind Pressure Humidity
    00:00 +21°C° 0.6 mm 3 mps 752 mmHg 98%
    01:00 +21°C° 0.6 mm 3 mps 752 mmHg 98%
    02:00 +21°C° 0.2 mm 2 mps 752 mmHg 98%
    03:00 +21°C° 0.2 mm 2 mps 751 mmHg 98%
    04:00 +20°C° 0 mm 2 mps 751 mmHg 97%
    05:00 +20°C° 0.1 mm 2 mps 751 mmHg 97%
    06:00 +22°C° 0.1 mm 1 mps 752 mmHg 96%
    07:00 +22°C° 0.1 mm 1 mps 752 mmHg 95%
    08:00 +24°C° 0 mm 1 mps 752 mmHg 86%
    09:00 +26°C° 0 mm 1 mps 752 mmHg 77%
    10:00 +30°C° 0 mm 1 mps 752 mmHg 59%
    11:00 +30°C° 0 mm 2 mps 751 mmHg 55%
    12:00 +31°C° 0 mm 2 mps 751 mmHg 51%
    13:00 +31°C° 0 mm 3 mps 750 mmHg 48%
    14:00 +30°C° 0 mm 3 mps 750 mmHg 51%
    15:00 +30°C° 0 mm 3 mps 749 mmHg 54%
    16:00 +29°C° 0 mm 2 mps 749 mmHg 56%
    17:00 +27°C° 0 mm 2 mps 749 mmHg 67%
    18:00 +25°C° 0 mm 2 mps 749 mmHg 77%
    19:00 +23°C° 0 mm 2 mps 750 mmHg 87%
    20:00 +22°C° 0 mm 1 mps 750 mmHg 90%
    21:00 +22°C° 0 mm 1 mps 750 mmHg 93%
    22:00 +21°C° 0 mm 1 mps 751 mmHg 95%
    23:00 +21°C° 0 mm 1 mps 750 mmHg 96%

    Tomorrow, 21 September, Thursday

    Time Temperature Precipitation Wind Pressure Humidity
    00:00 +21°C° 0 mm 1 mps 750 mmHg 96%
    01:00 +21°C° 0 mm 1 mps 750 mmHg 96%
    02:00 +20°C° 0 mm 1 mps 750 mmHg 96%
    03:00 +20°C° 0 mm 1 mps 750 mmHg 97%
    04:00 +20°C° 0 mm 1 mps 750 mmHg 97%
    05:00 +21°C° 0 mm 1 mps 750 mmHg 96%
    06:00 +21°C° 0 mm 1 mps 751 mmHg 95%
    07:00 +21°C° 0 mm 1 mps 751 mmHg 94%
    08:00 +24°C° 0 mm 1 mps 751 mmHg 79%
    09:00 +26°C° 0 mm 1 mps 751 mmHg 64%
    10:00 +29°C° 0 mm 1 mps 751 mmHg 50%
    11:00 +30°C° 0 mm 2 mps 751 mmHg 46%
    12:00 +31°C° 0 mm 2 mps 750 mmHg 43%
    13:00 +31°C° 0 mm 2 mps 750 mmHg 39%
    14:00 +31°C° 0 mm 2 mps 749 mmHg 42%
    15:00 +30°C° 0 mm 2 mps 749 mmHg 44%
    16:00 +29°C° 0 mm 2 mps 748 mmHg 46%
    17:00 +27°C° 0 mm 2 mps 749 mmHg 59%
    18:00 +25°C° 0 mm 2 mps 749 mmHg 71%
    19:00 +21°C° 0 mm 2 mps 750 mmHg 84%
    20:00 +21°C° 0 mm 2 mps 750 mmHg 87%
    21:00 +20°C° 0 mm 2 mps 750 mmHg 91%
    22:00 +20°C° 0 mm 2 mps 751 mmHg 94%
    23:00 +20°C° 0 mm 2 mps 751 mmHg 93%

    Day after tomorrow, 22 September, Friday

    Time Temperature Precipitation Wind Pressure Humidity
    00:00 +21°C° 0 mm 2 mps 751 mmHg 91%
    01:00 +21°C° 0 mm 2 mps 750 mmHg 90%
    02:00 +21°C° 0 mm 2 mps 750 mmHg 91%
    03:00 +21°C° 0 mm 2 mps 750 mmHg 93%
    04:00 +20°C° 0 mm 2 mps 750 mmHg 94%
    05:00 +21°C° 0 mm 2 mps 750 mmHg 93%
    06:00 +21°C° 0 mm 2 mps 751 mmHg 92%
    07:00 +21°C° 0 mm 2 mps 751 mmHg 92%
    08:00 +24°C° 0 mm 2 mps 752 mmHg 84%
    09:00 +26°C° 0 mm 2 mps 752 mmHg 76%
    10:00 +28°C° 0 mm 2 mps 752 mmHg 68%
    11:00 +29°C° 0 mm 2 mps 751 mmHg 63%
    12:00 +30°C° 0 mm 2 mps 751 mmHg 58%
    13:00 +31°C° 0 mm 3 mps 750 mmHg 53%
    14:00 +31°C° 0 mm 3 mps 749 mmHg 55%
    15:00 +30°C° 0 mm 3 mps 749 mmHg 57%
    16:00 +30°C° 0 mm 3 mps 749 mmHg 59%
    17:00 +28°C° 0 mm 2 mps 749 mmHg 70%
    18:00 +26°C° 0 mm 2 mps 750 mmHg 81%
    19:00 +24°C° 0 mm 2 mps 750 mmHg 92%
    20:00 +24°C° 0 mm 2 mps 751 mmHg 90%
    21:00 +24°C° 0 mm 2 mps 751 mmHg 89%
    22:00 +24°C° 0 mm 2 mps 752 mmHg 87%
    23:00 +24°C° 0 mm 2 mps 751 mmHg 88%

    23 September, Saturday

    Time Temperature Precipitation Wind Pressure Humidity
    00:00 +23°C° 0 mm 2 mps 751 mmHg 89%
    01:00 +23°C° 0 mm 2 mps 750 mmHg 89%
    02:00 +23°C° 0 mm 2 mps 750 mmHg 91%
    03:00 +23°C° 0 mm 1 mps 750 mmHg 92%
    04:00 +22°C° 0 mm 1 mps 750 mmHg 93%
    05:00 +23°C° 0 mm 1 mps 751 mmHg 92%
    06:00 +23°C° 0 mm 1 mps 751 mmHg 92%
    07:00 +23°C° 0 mm 1 mps 751 mmHg 91%
    08:00 +25°C° 0 mm 2 mps 752 mmHg 82%
    09:00 +27°C° 0 mm 2 mps 752 mmHg 73%
    10:00 +28°C° 0 mm 2 mps 752 mmHg 63%
    11:00 +29°C° 0 mm 2 mps 751 mmHg 58%
    12:00 +31°C° 0 mm 3 mps 750 mmHg 52%
    13:00 +33°C° 0 mm 3 mps 750 mmHg 47%
    14:00 +31°C° 0 mm 3 mps 749 mmHg 49%
    15:00 +30°C° 0 mm 3 mps 749 mmHg 52%
    16:00 +30°C° 0 mm 3 mps 749 mmHg 54%
    17:00 +27°C° 0 mm 2 mps 749 mmHg 66%
    18:00 +25°C° 0 mm 2 mps 750 mmHg 77%
    19:00 +23°C° 0 mm 1 mps 750 mmHg 88%
    20:00 +23°C° 0 mm 1 mps 750 mmHg 91%
    21:00 +22°C° 0 mm 1 mps 751 mmHg 93%
    22:00 +22°C° 0 mm 1 mps 751 mmHg 95%
    23:00 +21°C° 0 mm 1 mps 751 mmHg 96%

    24 September, Sunday

    Time Temperature Precipitation Wind Pressure Humidity
    00:00 +21°C° 0 mm 1 mps 750 mmHg 96%
    01:00 +21°C° 0 mm 1 mps 750 mmHg 96%
    02:00 +21°C° 0 mm 1 mps 750 mmHg 96%
    03:00 +21°C° 0 mm 1 mps 750 mmHg 95%
    04:00 +21°C° 0 mm 1 mps 749 mmHg 95%
    05:00 +21°C° 0 mm 1 mps 750 mmHg 93%
    06:00 +22°C° 0 mm 1 mps 750 mmHg 91%
    07:00 +22°C° 0 mm 1 mps 751 mmHg 89%
    08:00 +24°C° 0 mm 2 mps 751 mmHg 77%
    09:00 +26°C° 0 mm 2 mps 751 mmHg 64%
    10:00 +29°C° 0 mm 2 mps 751 mmHg 52%
    11:00 +29°C° 0 mm 2 mps 750 mmHg 48%
    12:00 +30°C° 0 mm 2 mps 750 mmHg 44%
    13:00 +31°C° 0 mm 3 mps 749 mmHg 40%
    14:00 +30°C° 0 mm 3 mps 749 mmHg 42%
    15:00 +30°C° 0 mm 3 mps 748 mmHg 44%
    16:00 +29°C° 0 mm 2 mps 748 mmHg 46%
    17:00 +27°C° 0 mm 2 mps 748 mmHg 58%
    18:00 +24°C° 0 mm 2 mps 749 mmHg 69%
    19:00 +22°C° 0 mm 1 mps 749 mmHg 80%
    20:00 +21°C° 0 mm 1 mps 750 mmHg 84%
    21:00 +21°C° 0 mm 1 mps 750 mmHg 88%
    22:00 +20°C° 0 mm 1 mps 750 mmHg 92%
    23:00 +20°C° 0 mm 1 mps 750 mmHg 92%

    25 September, Monday

    Time Temperature Precipitation Wind Pressure Humidity
    00:00 +19°C° 0 mm 1 mps 749 mmHg 93%
    01:00 +19°C° 0 mm 1 mps 749 mmHg 94%
    02:00 +19°C° 0 mm 1 mps 749 mmHg 94%
    03:00 +19°C° 0 mm 1 mps 749 mmHg 95%
    04:00 +18°C° 0 mm 1 mps 749 mmHg 95%
    05:00 +19°C° 0 mm 1 mps 749 mmHg 94%
    06:00 +19°C° 0 mm 1 mps 750 mmHg 92%
    07:00 +20°C° 0 mm 1 mps 750 mmHg 91%
    08:00 +23°C° 0 mm 1 mps 751 mmHg 79%
    09:00 +25°C° 0 mm 1 mps 751 mmHg 68%
    10:00 +28°C° 0 mm 2 mps 751 mmHg 56%
    11:00 +29°C° 0 mm 2 mps 750 mmHg 52%
    12:00 +30°C° 0 mm 2 mps 749 mmHg 49%
    13:00 +30°C° 0 mm 3 mps 749 mmHg 45%
    14:00 +30°C° 0 mm 3 mps 749 mmHg 47%
    15:00 +29°C° 0 mm 3 mps 748 mmHg 49%
    16:00 +29°C° 0 mm 3 mps 748 mmHg 52%
    17:00 +27°C° 0 mm 2 mps 748 mmHg 62%
    18:00 +24°C° 0 mm 2 mps 749 mmHg 73%
    19:00 +21°C° 0 mm 2 mps 749 mmHg 84%
    20:00 +21°C° 0 mm 2 mps 749 mmHg 87%
    21:00 +21°C° 0 mm 1 mps 750 mmHg 90%
    22:00 +20°C° 0 mm 1 mps 750 mmHg 93%
    23:00 +20°C° 0 mm 1 mps 750 mmHg 94%
    Show more